Date String (YYYY-MM-DD hh:mm:ss) UTC,Instrument flags,Ambient pressure (hPa),Sample flow (lpm),Bypass flow (lpm),Sample temperature (°C),Ambient temperature (°C),ASC tube jacket temperature (°C),LED temperature (°C),Box temperature (°C),Sample RH (%),Span deviation,Mass concentration (μg/m³),Mass concentration (μg/m³),Mass concentration (μg/m³)
DateTimeUTC,F1_M11,P_M11,Q1_M11,Q2_M11,T1_M11,T2_M11,T3_M11,T4_M11,T5_M11,U1_M11,ZSPAN_M11,X2_M11,X0_M11,X1_M11
2023-05-27 07:00:00,,0830.8,5.00,0.00,29.6,28.0,00.0,38.0,31.2,27.1,0000.0,0002.73,0003.88,0002.17
2023-05-27 07:01:00,,0830.8,5.01,0.00,29.6,28.0,00.0,38.0,31.2,27.1,0000.0,0002.68,0003.82,0002.14
2023-05-27 07:02:00,,0830.7,5.01,0.00,29.6,28.0,00.0,38.0,31.2,27.1,0000.0,0002.67,0003.85,0002.13
2023-05-27 07:03:00,,0830.7,5.00,0.00,29.7,28.0,00.0,38.0,31.2,27.0,0000.0,0002.67,0003.88,0002.12
2023-05-27 07:04:00,,0830.7,5.00,0.00,29.6,28.0,00.0,38.0,31.2,27.0,0000.0,0002.66,0003.84,0002.11
2023-05-27 07:05:00,,0830.6,5.00,0.00,29.6,28.0,00.0,38.0,31.2,27.0,0000.0,0002.64,0003.79,0002.11
2023-05-27 07:06:00,,0830.6,5.00,0.00,29.7,28.0,00.0,38.0,31.2,27.0,0000.0,0002.66,0003.88,0002.10
2023-05-27 07:07:00,,0830.6,5.00,0.00,29.7,28.0,00.0,38.0,31.2,26.9,0000.0,0002.66,0003.91,0002.09
2023-05-27 07:08:00,,0830.5,5.01,0.00,29.7,28.0,00.0,38.0,31.2,27.0,0000.0,0002.72,0004.12,0002.09
2023-05-27 07:09:00,,0830.6,5.00,0.00,29.7,28.0,00.0,38.0,31.2,27.0,0000.0,0002.73,0004.17,0002.09
2023-05-27 07:10:00,,0830.5,5.00,0.00,29.7,28.0,00.0,38.0,31.2,27.0,0000.0,0002.72,0004.36,0002.08
2023-05-27 07:11:00,,0830.5,5.00,0.00,29.7,28.0,00.0,38.0,31.2,26.7,0000.0,0002.76,0005.04,0002.08
2023-05-27 07:12:00,,0830.4,5.00,0.00,29.7,28.0,00.0,38.0,31.2,26.6,0000.0,0002.78,0005.05,0002.10
2023-05-27 07:13:00,,0830.4,5.00,0.00,29.7,28.0,00.0,38.0,31.2,26.7,0000.0,0002.83,0005.14,0002.12
2023-05-27 07:14:00,,0830.3,4.99,0.00,29.7,28.0,00.0,38.0,31.2,26.4,0000.0,0002.82,0005.11,0002.13
2023-05-27 07:15:00,,0830.3,4.99,0.00,29.6,28.0,00.0,38.0,31.2,26.3,0000.0,0002.79,0005.08,0002.14
2023-05-27 07:16:00,,0830.3,5.00,0.00,29.6,27.9,00.0,38.0,31.2,26.3,0000.0,0002.80,0005.19,0002.12
2023-05-27 07:17:00,,0830.2,5.00,0.00,29.6,27.9,00.0,38.0,31.2,26.3,0000.0,0002.78,0005.09,0002.11
2023-05-27 07:18:00,,0830.3,5.00,0.00,29.6,27.9,00.0,38.0,31.2,26.4,0000.0,0002.76,0005.05,0002.12
2023-05-27 07:19:00,,0830.3,5.00,0.00,29.6,27.9,00.0,38.0,31.2,26.3,0000.0,0002.67,0004.80,0002.10
2023-05-27 07:20:00,,0830.2,5.00,0.00,29.6,27.9,00.0,38.0,31.1,26.3,0000.0,0002.66,0004.78,0002.10
2023-05-27 07:21:00,,0830.2,4.98,0.00,29.6,27.9,00.0,38.0,31.1,26.1,0000.0,0002.70,0004.73,0002.10
2023-05-27 07:22:00,,0830.2,5.00,0.00,29.6,27.8,00.0,38.0,31.1,26.1,0000.0,0002.64,0004.00,0002.09
2023-05-27 07:23:00,,0830.2,4.99,0.00,29.6,27.8,00.0,38.0,31.1,26.0,0000.0,0002.59,0003.89,0002.07
2023-05-27 07:24:00,,0830.1,4.99,0.00,29.6,27.8,00.0,38.0,31.1,25.9,0000.0,0002.49,0003.66,0002.03
2023-05-27 07:25:00,,0830.1,5.00,0.00,29.6,27.8,00.0,38.0,31.1,25.9,0000.0,0002.44,0003.52,0002.01
2023-05-27 07:26:00,,0830.1,5.00,0.00,29.5,27.8,00.0,38.0,31.1,25.9,0000.0,0002.44,0003.47,0001.99
2023-05-27 07:27:00,,0830.0,5.01,0.00,29.5,27.8,00.0,38.0,31.1,25.9,0000.0,0002.44,0003.98,0001.99
2023-05-27 07:28:00,,0830.0,5.00,0.00,29.5,27.7,00.0,38.0,31.1,25.9,0000.0,0002.43,0004.74,0001.98
2023-05-27 07:29:00,,0830.0,5.01,0.00,29.5,27.7,00.0,37.9,31.1,25.8,0000.0,0002.42,0004.72,0001.97
2023-05-27 07:30:00,,0829.9,5.00,0.00,29.5,27.7,00.0,37.9,31.0,25.7,0000.0,0002.43,0004.75,0001.97
2023-05-27 07:31:00,,0829.9,5.00,0.00,29.5,27.7,00.0,37.9,31.0,25.7,0000.0,0002.41,0004.65,0001.97
2023-05-27 07:32:00,,0829.9,5.00,0.00,29.5,27.7,00.0,37.9,31.0,25.8,0000.0,0002.33,0004.39,0001.95
2023-05-27 07:33:00,,0829.9,5.00,0.00,29.5,27.7,00.0,37.9,31.0,25.8,0000.0,0002.32,0004.41,0001.95
2023-05-27 07:34:00,,0829.9,5.00,0.00,29.5,27.7,00.0,37.9,31.0,25.8,0000.0,0002.34,0004.54,0001.95
2023-05-27 07:35:00,,0829.9,5.00,0.00,29.5,27.6,00.0,37.9,31.0,25.9,0000.0,0002.41,0004.86,0001.96
2023-05-27 07:36:00,,0829.9,5.00,0.00,29.4,27.6,00.0,37.9,31.0,25.9,0000.0,0002.44,0005.02,0001.96
2023-05-27 07:37:00,,0829.9,5.00,0.00,29.4,27.6,00.0,37.9,31.0,25.7,0000.0,0002.43,0005.01,0001.94
2023-05-27 07:38:00,,0829.8,5.00,0.00,29.4,27.6,00.0,37.9,31.0,25.6,0000.0,0002.41,0004.38,0001.94
2023-05-27 07:39:00,,0829.8,5.00,0.00,29.4,27.6,00.0,37.9,31.0,25.6,0000.0,0002.43,0003.73,0001.96
2023-05-27 07:40:00,,0829.8,5.00,0.00,29.4,27.6,00.0,37.8,31.0,25.7,0000.0,0002.46,0003.78,0001.96
2023-05-27 07:41:00,,0829.8,5.01,0.00,29.4,27.6,00.0,37.8,31.0,25.8,0000.0,0002.49,0003.88,0001.96
2023-05-27 07:42:00,,0829.8,5.00,0.00,29.4,27.6,00.0,37.8,30.9,25.9,0000.0,0002.52,0003.96,0001.97
2023-05-27 07:43:00,,0829.8,5.00,0.00,29.4,27.6,00.0,37.8,30.9,25.9,0000.0,0002.58,0004.28,0001.98
2023-05-27 07:44:00,,0829.8,5.00,0.00,29.4,27.6,00.0,37.8,30.9,25.9,0000.0,0002.62,0004.47,0001.98
2023-05-27 07:45:00,,0829.8,5.00,0.00,29.3,27.6,00.0,37.8,30.9,25.9,0000.0,0002.66,0004.54,0001.97
2023-05-27 07:46:00,,0829.8,5.00,0.00,29.3,27.6,00.0,37.8,30.9,25.8,0000.0,0002.62,0004.33,0001.95
2023-05-27 07:47:00,,0829.8,5.00,0.00,29.3,27.6,00.0,37.8,30.9,25.7,0000.0,0002.59,0004.22,0001.94
2023-05-27 07:48:00,,0829.7,5.00,0.00,29.3,27.6,00.0,37.8,30.9,25.6,0000.0,0002.60,0004.41,0001.96
2023-05-27 07:49:00,,0829.8,5.00,0.00,29.3,27.5,00.0,37.8,30.9,25.5,0000.0,0002.64,0005.38,0001.96
2023-05-27 07:50:00,,0829.7,5.00,0.00,29.3,27.5,00.0,37.8,30.9,25.4,0000.0,0002.63,0005.81,0001.95
2023-05-27 07:51:00,,0829.7,5.00,0.00,29.3,27.5,00.0,37.7,30.9,25.3,0000.0,0002.58,0005.94,0001.94
2023-05-27 07:52:00,,0829.7,5.00,0.00,29.3,27.5,00.0,37.7,30.9,25.2,0000.0,0002.57,0005.93,0001.93
2023-05-27 07:53:00,,0829.6,4.99,0.00,29.3,27.5,00.0,37.7,30.9,25.2,0000.0,0002.57,0006.61,0001.91
2023-05-27 07:54:00,,0829.6,5.00,0.00,29.3,27.5,00.0,37.7,30.8,25.2,0000.0,0002.51,0006.37,0001.89
2023-05-27 07:55:00,,0829.6,5.00,0.00,29.3,27.5,00.0,37.7,30.8,25.1,0000.0,0002.47,0006.24,0001.87
2023-05-27 07:56:00,,0829.6,5.01,0.00,29.3,27.4,00.0,37.7,30.8,25.1,0000.0,0002.44,0006.15,0001.87
2023-05-27 07:57:00,,0829.6,5.01,0.00,29.3,27.4,00.0,37.7,30.8,25.1,0000.0,0002.44,0006.14,0001.87
2023-05-27 07:58:00,,0829.6,4.99,0.00,29.2,27.4,00.0,37.7,30.8,25.1,0000.0,0002.45,0006.31,0001.87
2023-05-27 07:59:00,,0829.6,4.99,0.00,29.2,27.4,00.0,37.7,30.8,25.2,0000.0,0002.43,0006.22,0001.86
